STARLINK-33534, 63499

Orbit data source: Space-Track

STARLINK-33534, 63499 is a payload satellite in LEO that was launched on Mon, 07 Apr 2025 UTC via an FALCON 9 launch vehicle from the Air Force Western Test Range (AFWTR). Payload-class satellites include a variety of spacecraft equipped with specific instruments for various scientific and technological missions. These include communications satellites like Starlink; space stations such as the ISS; scientific satellites like the Hubble; Earth observation satellites from companies like Planet Labs, Umbra, and HawkEye 360; GPS; miniature CubeSats for education and research; and military/defense satellites.

Loading next visibility...
Identifier
63499, 2025-071G
Orbit
LEO
Last TLE update
5 hours ago
Origin
Manufacturer
SpaceX/Seattle
Mission
Operational Commercial Communications
Bus & Motor
STARLINK V2MO, Unknown motor
Mass
575 kg wet, ~530 kg dry
Launch date (UTC)
2025-04-07 (1 month ago)
Launch vehicle
FALCON 9
Launch site
Air Force Western Test Range (AFWTR)
Object type
Payload
Rocket body
Debris
Shape & HBR
Box + 1 Pan, 29 m
Radar Cross Section
41.120 m², Large (>1 m²)

Expand to show TLE details & history

TLE from 5 hours ago
0 STARLINK-33534
1 63499U 25071G   25140.51933025  .00002658  00000-0  76382-4 0  9997
2 63499  53.1640  65.2597 0000861  82.8242 277.2860 15.39629917  7817
Epoch: 2025-05-20T12:27Z
TLE epoch observation values (Epoch: 2025-05-20T12:27:50.133Z)
Latitude
-0.00009°
Longitude
-0.11568°
Altitude
448.032 km
Speed
7.645 km/s
True Right ascension
04h 21m 02s
True Declination
0° 00' 00"
Sunlit
Object was in daylight at epoch
Visualization orbit readout
Latitude
-28.77039°
Longitude
-25.1457°
Altitude
456.165 km
Speed
7.639 km/s
Apparent Right ascension
05h 22m 24s
Apparent Declination
-77° 50' 49"
Sunlit
Object is in daylight
Visualization observer readout
Local Sidereal Time
01:52:38
Azimuth
168.66° S
Elevation
-31.928°
Doppler factor
1
Orbital elements
Apogee altitude
448.047 km
Perigee altitude
446.872 km
Semi-major axis
6,825.597 km
Eccentricity
0.00009
Inclination
53.164°
RAAN
65.2597°
Arg. of periapsis
82.8242°
True anomaly
Unknown
Mean anomaly
277.286°
Eccentric anomaly
Unknown
Mean motion
3.84886 °/min
Orbital period
93.53 mins
BSTAR
0.000076382
Loading maneuver chart data...
Loading SW <> Apogee altitude chart data...
Loading historical data...
Loading historical data...
Loading historical data...
Loading historical data...
Loading historical data...
Loading historical data...
Loading historical data...

STARLINK-33534 Visibility forecast

Observer location: undefined°, undefined°

Span
Click to sort rows by Start time (UTC) header in descending order
Start Az.
Max El. time (UTC)
Max El. Az.
Max El.
End time (UTC)
End Az.
5 mins2025-05-20 22:00:42.721Z238.577° WSW2025-05-20 22:02:42.721Z297.083° NW43.585°2025-05-20 22:05:42.721Z45.693° ENE
5 mins2025-05-21 04:33:42.721Z312.431° NW2025-05-21 04:35:42.721Z116.742° SE43.565°2025-05-21 04:38:42.721Z129.358° SE
|